Location: Ajisawe
(8.4333°N, 4.3833°E)
Time: 05:04:49
(UTC+00:00)

Transit 2A - All Passes

Search period start: 14 April 2021 00:00
Search period end: 24 April 2021 00:00
Orbit: 602 x 957 km, 66.7° (Epoch: 13 April)

Date Brightness Start Highest point End Pass type
(mag) Time Alt. Az. Time Alt. Az. Time Alt. Az.
14 Apr - 05:57:42 10° SSE 06:01:41 20° ESE 06:05:25 10° ENE daylight
14 Apr - 07:40:09 10° SW 07:44:38 26° WNW 07:48:47 10° NNW daylight
14 Apr - 18:25:13 10° NNW 18:30:00 74° WSW 18:35:20 10° SSE visible
15 Apr - 05:25:40 10° SE 05:27:30 12° ESE 05:29:16 10° E daylight
15 Apr - 07:05:19 10° SW 07:10:31 44° WNW 07:15:15 10° N daylight
15 Apr - 17:51:08 10° NNW 17:55:52 64° ENE 18:01:08 10° SSE daylight
16 Apr - 06:30:53 10° SSW 06:36:25 77° WNW 06:41:22 10° NNE daylight
16 Apr - 17:17:21 10° N 17:21:46 36° ENE 17:26:35 10° SE daylight
16 Apr - 19:02:26 10° W 19:04:45 13° WSW 19:07:09 10° SW visible
17 Apr - 05:56:47 10° S 06:02:16 63° ESE 06:07:12 10° NNE daylight
17 Apr - 16:43:59 10° NNE 16:47:39 21° ENE 16:51:34 10° ESE daylight
17 Apr - 18:26:43 10° WNW 18:30:33 23° WSW 18:34:41 10° SSW visible
18 Apr - 05:23:03 10° S 05:28:07 37° ESE 05:32:42 10° NE daylight
18 Apr - 07:08:23 10° W 07:10:58 14° WNW 07:13:28 10° NW daylight
18 Apr - 16:11:32 10° NE 16:13:31 12° ENE 16:15:33 10° E daylight
18 Apr - 17:51:51 10° NW 17:56:22 38° WSW 18:01:21 10° S daylight
19 Apr - 04:49:46 10° SSE 04:53:55 22° ESE 04:57:48 10° ENE visible
19 Apr - 06:32:39 10° WSW 06:36:51 23° WNW 06:40:45 10° NNW daylight
19 Apr - 17:17:23 10° NNW 17:22:13 66° WSW 17:27:34 10° SSE daylight
20 Apr - 04:17:23 10° SE 04:19:44 13° ESE 04:21:59 10° E visible
20 Apr - 05:57:41 10° SW 06:02:44 39° WNW 06:07:19 10° N daylight
20 Apr - 16:43:15 10° NNW 16:48:05 72° ENE 16:53:27 10° SSE daylight
21 Apr - 05:23:11 10° SSW 05:28:37 69° WNW 05:33:30 10° NNE daylight
21 Apr - 16:09:24 10° N 16:13:58 41° ENE 16:18:59 10° SE daylight
21 Apr - 17:55:06 10° W 17:56:58 12° WSW 17:58:55 10° SW daylight
22 Apr - 04:49:02 10° SSW 04:54:29 70° ESE 04:59:23 10° NNE visible
22 Apr - 15:35:56 10° NNE 15:39:51 24° ENE 15:44:05 10° ESE daylight
22 Apr - 17:19:04 10° WNW 17:22:46 21° WSW 17:26:45 10° SSW daylight
23 Apr - 04:15:14 10° S 04:20:20 40° ESE 04:24:57 10° NE visible
23 Apr - 06:01:17 10° W 06:03:11 12° WNW 06:05:03 10° NW daylight
23 Apr - 15:03:09 10° NE 15:05:44 14° ENE 15:08:24 10° E daylight
23 Apr - 16:44:06 10° NW 16:48:35 35° WSW 16:53:31 10° S daylight
